WX2NJ-13 Weather Reports


Display with metric or nautical units.
time (UTC)temp
F
wind
direction
speed
MPH
gust
MPH
rain 1hr
in
rain 24hr
in
rain mn
in
humidity
%
barometer
mb
20180716235748 81 203 4.0 6.0 0.00 0.01 0.00 70 1012.3
20180716235249 81 214 4.0 4.0 0.00 0.01 0.00 70 1012.3
20180716234249 82 181 3.0 6.0 0.00 0.01 0.00 70 1012.4
20180716233750 82 233 3.0 3.0 0.00 0.01 0.00 70 1012.4
20180716233249 82 142 2.0 1.0 0.00 0.01 0.00 70 1012.3
20180716232252 82 172 3.0 2.0 0.00 0.01 0.00 69 1012.3
20180716231748 82 249 2.0 2.0 0.00 0.01 0.00 69 1012.3
20180716230750 83 181 5.0 6.0 0.00 0.01 0.00 67 1012.4
20180716225750 83 181 3.0 6.0 0.00 0.01 0.00 66 1012.3
20180716224748 84 194 1.0 5.0 0.00 0.01 0.00 65 1012.3
20180716224248 84 229 3.0 8.0 0.00 0.01 0.00 64 1012.3
20180716223248 85 203 4.0 5.0 0.00 0.01 0.00 63 1012.4
20180716222249 85 222 2.0 4.0 0.00 0.01 0.00 62 1012.4
20180716221746 86 215 3.0 6.0 0.00 0.01 0.00 62 1012.4
20180716220748 86 197 5.0 5.0 0.00 0.01 0.00 62 1012.3
20180716220247 87 208 3.0 5.0 0.00 0.01 0.00 62 1012.3
20180716215748 87 181 6.0 9.0 0.00 0.01 0.00 62 1012.4
20180716215250 87 181 4.0 3.0 0.00 0.01 0.00 61 1012.5
20180716214748 88 184 5.0 7.0 0.00 0.01 0.00 60 1012.4
20180716214249 88 210 3.0 6.0 0.00 0.01 0.00 60 1012.4
20180716213748 88 166 4.0 7.0 0.00 0.01 0.00 59 1012.4
20180716213247 88 173 4.0 6.0 0.00 0.01 0.00 59 1012.5
20180716212748 88 248 3.0 8.0 0.00 0.01 0.00 60 1012.4
20180716212249 88 212 2.0 1.0 0.00 0.01 0.00 61 1012.5
20180716211748 88 191 4.0 5.0 0.00 0.01 0.00 59 1012.6
20180716211250 88 150 4.0 8.0 0.00 0.01 0.00 60 1012.7
20180716210751 87 221 4.0 4.0 0.00 0.01 0.00 60 1012.7
20180716210250 87 184 4.0 6.0 0.00 0.01 0.00 61 1012.8
20180716205251 87 228 6.0 2.0 0.00 0.01 0.00 62 1012.8
20180716204750 87 228 4.0 4.0 0.00 0.01 0.00 63 1012.8
20180716204249 87 274 2.0 2.0 0.00 0.01 0.00 61 1012.9
20180716203750 87 165 5.0 7.0 0.00 0.01 0.00 60 1012.9
20180716203249 88 129 4.0 6.0 0.00 0.01 0.00 59 1012.9
20180716202750 88 208 2.0 2.0 0.00 0.01 0.00 58 1012.8
20180716202253 89 259 4.0 8.0 0.00 0.01 0.00 57 1013.0
20180716201252 90 214 2.0 3.0 0.00 0.01 0.00 58 1012.9
20180716195749 91 208 2.0 2.0 0.00 0.01 0.00 57 1012.9
20180716195251 91 235 4.0 4.0 0.00 0.01 0.00 57 1013.0
20180716194750 91 219 2.0 2.0 0.00 0.01 0.00 58 1012.9
20180716194251 90 215 4.0 3.0 0.00 0.01 0.00 58 1012.9
20180716193752 90 156 4.0 7.0 0.00 0.01 0.00 57 1013.1
20180716193251 90 149 5.0 7.0 0.00 0.01 0.00 58 1013.1
20180716192753 90 172 6.0 3.0 0.00 0.01 0.00 56 1013.1
20180716191748 90 173 5.0 2.0 0.00 0.01 0.00 58 1013.2
20180716190749 90 167 4.0 2.0 0.00 0.01 0.00 56 1013.3
20180716183748 89 177 4.0 4.0 0.00 0.01 0.00 60 1013.3
20180716183247 89 195 4.0 7.0 0.00 0.01 0.00 59 1013.4
20180716182748 89 173 5.0 5.0 0.00 0.01 0.00 58 1013.4
20180716182250 89 143 6.0 7.0 0.00 0.01 0.00 59 1013.6
20180716181749 88 200 4.0 3.0 0.00 0.01 0.00 63 1013.6
20180716175752 87 139 1.0 2.0 0.00 0.01 0.00 65 1013.8
20180716175253 87 222 2.0 1.0 0.00 0.01 0.00 66 1013.7
20180716174751 87 195 4.0 3.0 0.00 0.01 0.00 64 1013.8
20180716174252 87 124 4.0 4.0 0.00 0.01 0.00 64 1013.9
20180716173754 87 177 3.0 2.0 0.00 0.01 0.00 65 1014.0
20180716173253 87 169 3.0 0.0 0.00 0.01 0.00 64 1013.9
20180716172255 88 201 4.0 4.0 0.00 0.01 0.00 64 1014.1
20180716171754 88 120 2.0 3.0 0.00 0.01 0.00 64 1014.1
20180716170755 88 159 4.0 6.0 0.00 0.01 0.00 64 1014.1
20180716170254 88 125 4.0 7.0 0.00 0.01 0.00 64 1014.2
20180716165755 88 146 5.0 5.0 0.00 0.01 0.00 63 1014.2
20180716165256 89 198 6.0 3.0 0.00 0.01 0.00 61 1014.3
20180716164755 89 152 4.0 3.0 0.00 0.01 0.00 62 1014.2
20180716164334 89 136 3.0 2.0 0.00 0.01 0.00 60 1014.3
20180716164257 89 136 3.0 2.0 0.00 0.01 0.00 60 1014.3
20180716163256 90 263 5.0 3.0 0.00 0.01 0.00 59 1014.3
20180716162758 90 166 4.0 6.0 0.00 0.01 0.00 59 1014.3
20180716162302 90 121 3.0 4.0 0.00 0.01 0.00 62 1014.4
20180716161759 90 155 3.0 7.0 0.00 0.01 0.00 60 1014.3
20180716161300 91 76 3.0 5.0 0.00 0.01 0.00 59 1014.3
20180716155801 91 181 2.0 5.0 0.00 0.01 0.00 56 1014.3
20180716155302 91 181 3.0 3.0 0.00 0.01 0.00 53 1014.3
20180716154801 91 232 4.0 2.0 0.00 0.01 0.00 52 1014.4
20180716154303 90 146 0.0 0.0 0.00 0.01 0.00 55 1014.3
20180716153803 90 339 1.0 0.0 0.00 0.01 0.00 55 1014.3
20180716153302 90 231 1.0 1.0 0.00 0.01 0.00 55 1014.3
20180716152304 89 214 1.0 3.0 0.00 0.01 0.00 58 1014.4
20180716151803 89 136 2.0 0.0 0.00 0.01 0.00 61 1014.4
20180716150305 88 203 1.0 3.0 0.00 0.01 0.00 64 1014.3
20180716145308 87 248 5.0 0.0 0.00 0.01 0.00 64 1014.4
20180716144806 87 224 5.0 2.0 0.00 0.01 0.00 65 1014.5
20180716144308 87 148 3.0 3.0 0.00 0.01 0.00 67 1014.5
20180716143809 87 259 1.0 1.0 0.00 0.01 0.00 68 1014.6
20180716143307 86 183 0.0 3.0 0.00 0.01 0.00 67 1014.6
20180716141808 86 222 1.0 0.0 0.00 0.01 0.00 71 1014.7
20180716141310 86 211 0.0 3.0 0.00 0.01 0.00 71 1014.8
20180716140811 85 255 3.0 1.0 0.00 0.01 0.00 71 1014.8
20180716140310 85 194 2.0 0.0 0.00 0.01 0.00 71 1014.8
20180716135811 85 170 0.0 2.0 0.00 0.01 0.00 73 1014.8
20180716135313 85 260 2.0 2.0 0.00 0.01 0.00 72 1014.7
20180716134313 84 180 1.0 3.0 0.00 0.01 0.00 76 1014.7
20180716133814 84 181 3.0 2.0 0.00 0.01 0.00 75 1014.7
20180716133313 84 243 1.0 2.0 0.00 0.01 0.00 79 1014.8
20180716132814 83 172 2.0 3.0 0.00 0.01 0.00 80 1014.9
20180716132316 83 177 1.0 1.0 0.00 0.01 0.00 82 1014.9
20180716131815 82 203 1.0 0.0 0.00 0.01 0.00 82 1014.8
20180716131316 82 162 2.0 3.0 0.00 0.01 0.00 82 1014.8
20180716130817 81 211 1.0 0.0 0.00 0.01 0.00 86 1014.9
20180716130316 81 346 4.0 1.0 0.00 0.01 0.00 89 1014.9
20180716125818 80 301 1.0 2.0 0.00 0.01 0.00 96 1014.9
20180716125319 80 318 1.0 1.0 0.00 0.01 0.00 99 1014.9
20180716124818 79 194 1.0 0.0 0.00 0.01 0.00 100 1014.9
20180716123318 77 250 1.0 0.0 0.00 0.01 0.00 100 1014.9
20180716122819 77 215 1.0 2.0 0.00 0.01 0.00 100 1014.9
20180716122320 76 221 0.0 2.0 0.00 0.01 0.00 100 1014.9
20180716121817 76 246 0.0 0.0 0.00 0.01 0.00 100 1015.0
20180716120818 75 319 1.0 0.0 0.00 0.01 0.00 100 1014.9
20180716120316 74 308 2.0 1.0 0.00 0.01 0.00 100 1014.9
20180716115816 74 90 0.0 1.0 0.00 0.01 0.00 100 1014.8
20180716114419 73 307 0.0 0.0 0.00 0.01 0.00 100 1014.7
20180716114314 73 307 0.0 0.0 0.00 0.01 0.00 100 1014.7
20180716113314 72 159 0.0 0.0 0.00 0.01 0.00 100 1014.8
20180716112814 72 280 0.0 0.0 0.00 0.01 0.00 100 1014.7
20180716112313 72 280 0.0 0.0 0.00 0.01 0.00 100 1014.7
20180716111810 71 169 1.0 0.0 0.00 0.01 0.00 100 1014.7
20180716111311 71 302 0.0 1.0 0.00 0.01 0.00 100 1014.7
20180716110812 71 219 0.0 0.0 0.00 0.01 0.00 100 1014.7
20180716105811 70 194 0.0 0.0 0.00 0.01 0.00 100 1014.7
20180716105313 70 194 0.0 0.0 0.00 0.01 0.00 100 1014.7
20180716104811 70 194 0.0 0.0 0.00 0.01 0.00 100 1014.7
20180716104313 70 194 0.0 0.0 0.00 0.01 0.00 100 1014.7
20180716103813 70 194 0.0 0.0 0.00 0.01 0.00 100 1014.6
20180716102813 69 203 0.0 0.0 0.00 0.01 0.00 100 1014.6
20180716102315 69 203 0.0 0.0 0.00 0.01 0.00 100 1014.6
20180716101813 69 203 0.0 0.0 0.00 0.01 0.00 100 1014.6
20180716101314 69 212 0.0 1.0 0.00 0.01 0.00 100 1014.5
20180716095813 69 238 0.0 0.0 0.00 0.01 0.00 100 1014.5
20180716094311 69 180 0.0 0.0 0.00 0.01 0.00 100 1014.4
20180716093813 69 236 0.0 0.0 0.00 0.01 0.00 100 1014.3
20180716092811 69 214 0.0 0.0 0.00 0.01 0.00 100 1014.2
20180716092311 69 214 0.0 0.0 0.00 0.01 0.00 100 1014.2
20180716091809 69 214 0.0 0.0 0.00 0.01 0.00 100 1014.2
20180716091310 69 214 0.0 0.0 0.00 0.01 0.00 100 1014.3
20180716090811 69 214 0.0 0.0 0.00 0.01 0.00 100 1014.3
20180716090309 69 214 0.0 0.0 0.00 0.01 0.00 100 1014.3
20180716085805 69 214 0.0 0.0 0.00 0.01 0.00 100 1014.4
20180716085307 69 214 0.0 0.0 0.00 0.01 0.00 100 1014.3
20180716084804 69 214 0.0 0.0 0.00 0.01 0.00 100 1014.3
20180716084306 69 214 0.0 0.0 0.00 0.01 0.00 100 1014.3
20180716083807 69 214 0.0 0.0 0.00 0.01 0.00 100 1014.4
20180716083306 69 214 0.0 0.0 0.00 0.01 0.00 100 1014.4
20180716082806 69 214 0.0 0.0 0.00 0.01 0.00 100 1014.4
20180716082307 69 214 0.0 0.0 0.00 0.01 0.00 100 1014.5
20180716081805 69 214 0.0 0.0 0.00 0.01 0.00 100 1014.4
20180716081306 69 214 0.0 0.0 0.00 0.01 0.00 100 1014.5
20180716080807 69 214 0.0 0.0 0.00 0.01 0.00 100 1014.5
20180716075306 69 214 0.0 0.0 0.00 0.01 0.00 100 1014.5
20180716074803 69 214 0.0 0.0 0.00 0.01 0.00 100 1014.5
20180716074304 69 214 0.0 0.0 0.00 0.01 0.00 100 1014.4
20180716073804 69 214 0.0 0.0 0.00 0.01 0.00 100 1014.4
20180716073303 69 214 0.0 0.0 0.00 0.01 0.00 100 1014.4
20180716072804 70 225 0.0 0.0 0.00 0.01 0.00 100 1014.4
20180716072305 70 225 0.0 0.0 0.00 0.01 0.00 100 1014.4
20180716071804 70 225 0.0 0.0 0.00 0.01 0.00 100 1014.5
20180716070806 70 225 0.0 0.0 0.00 0.01 0.00 100 1014.5
20180716065806 70 225 0.0 0.0 0.00 0.01 0.00 100 1014.5
20180716065305 70 225 0.0 0.0 0.00 0.01 0.00 100 1014.5
20180716064803 70 243 1.0 0.0 0.00 0.01 0.00 100 1014.6
20180716064305 70 240 1.0 0.0 0.00 0.01 0.00 100 1014.6
20180716063806 70 228 0.0 0.0 0.00 0.01 0.00 100 1014.6
20180716063305 70 262 0.0 0.0 0.00 0.01 0.00 100 1014.5
20180716062803 70 198 1.0 0.0 0.00 0.01 0.00 100 1014.5
20180716061800 70 167 0.0 0.0 0.00 0.01 0.00 100 1014.5
20180716061300 70 233 0.0 0.0 0.00 0.01 0.00 100 1014.4
20180716060801 70 233 0.0 0.0 0.00 0.01 0.00 100 1014.4
20180716060259 70 141 0.0 0.0 0.00 0.01 0.00 100 1014.4
20180716055800 70 170 1.0 0.0 0.00 0.01 0.00 100 1014.4
20180716055302 70 191 0.0 0.0 0.00 0.01 0.00 100 1014.4
20180716054302 70 191 0.0 1.0 0.00 0.01 0.00 100 1014.4
20180716053803 70 233 0.0 0.0 0.00 0.01 0.00 100 1014.5
20180716053302 70 233 0.0 0.0 0.00 0.01 0.00 100 1014.5
20180716052804 70 233 0.0 0.0 0.00 0.01 0.00 100 1014.5
20180716051804 70 233 0.0 0.0 0.00 0.01 0.00 100 1014.6
20180716051305 70 233 0.0 0.0 0.00 0.01 0.00 100 1014.7
20180716050807 70 198 0.0 0.0 0.00 0.01 0.00 100 1014.7
20180716050306 70 198 0.0 0.0 0.00 0.01 0.00 100 1014.6
20180716045807 70 198 0.0 0.0 0.00 0.01 0.00 100 1014.6
20180716045308 70 198 0.0 0.0 0.00 0.01 0.00 100 1014.6
20180716044806 71 198 0.0 0.0 0.00 0.01 0.00 100 1014.7
20180716044307 71 240 0.0 0.0 0.00 0.01 0.00 100 1014.7
20180716043809 71 210 0.0 0.0 0.00 0.01 0.00 100 1014.7
20180716043307 71 218 0.0 0.0 0.00 0.01 0.00 100 1014.6
20180716042808 71 146 0.0 1.0 0.00 0.01 0.00 100 1014.7
20180716042309 71 190 0.0 0.0 0.00 0.01 0.00 100 1014.7
20180716041808 71 190 0.0 0.0 0.00 0.01 0.00 100 1014.7
20180716041309 71 212 0.0 0.0 0.00 0.01 0.00 100 1014.7
20180716040811 71 201 0.0 0.0 0.00 0.01 0.00 100 1014.7
20180716035811 71 179 0.0 0.0 0.00 0.01 0.00 100 1014.8
20180716035312 71 179 0.0 0.0 0.00 0.00 0.01 100 1014.7
20180716033814 71 179 0.0 0.0 0.00 0.00 0.01 100 1014.9
20180716032814 71 179 0.0 0.0 0.00 0.00 0.01 100 1014.8
20180716032314 71 179 1.0 0.0 0.00 0.00 0.01 100 1014.9
20180716031313 71 198 0.0 0.0 0.00 0.00 0.01 100 1014.9
20180716030815 72 198 0.0 0.0 0.00 0.00 0.01 100 1014.8
20180716025814 72 198 0.0 0.0 0.00 0.00 0.01 100 1014.7
20180716024814 72 198 0.0 0.0 0.00 0.00 0.01 100 1014.7
20180716024315 72 198 0.0 0.0 0.00 0.00 0.01 100 1014.7
20180716023315 72 198 0.0 0.0 0.00 0.00 0.01 100 1014.7
20180716022817 72 198 0.0 0.0 0.00 0.00 0.01 100 1014.7
20180716022319 72 198 0.0 0.0 0.00 0.00 0.01 100 1014.6
20180716021320 72 198 0.0 0.0 0.00 0.00 0.01 100 1014.6
20180716020820 73 198 0.0 0.0 0.00 0.00 0.01 100 1014.6
20180716020318 73 198 0.0 0.0 0.00 0.00 0.01 100 1014.6
20180716015819 73 198 0.0 0.0 0.00 0.00 0.01 100 1014.5
20180716015320 73 198 0.0 0.0 0.00 0.00 0.01 100 1014.5
20180716014819 73 198 0.0 0.0 0.00 0.00 0.01 100 1014.3
20180716014321 73 198 0.0 0.0 0.00 0.00 0.01 100 1014.3
20180716013822 73 198 0.0 0.0 0.00 0.00 0.01 100 1014.2
20180716013321 73 198 0.0 0.0 0.00 0.00 0.01 100 1014.1
20180716012823 73 198 0.0 0.0 0.00 0.00 0.01 100 1014.1
20180716012324 74 198 0.0 0.0 0.00 0.00 0.01 100 1014.1
20180716011823 74 198 0.0 0.0 0.00 0.00 0.01 100 1014.1
20180716011324 74 198 0.0 0.0 0.00 0.00 0.01 99 1014.1
20180716010826 74 198 0.0 0.0 0.00 0.00 0.01 99 1014.1
20180716010324 74 198 0.0 0.0 0.00 0.00 0.01 99 1014.1
20180716005825 74 198 0.0 0.0 0.00 0.00 0.01 98 1014.1
20180716005327 75 198 0.0 0.0 0.00 0.00 0.01 98 1014.0
20180716004826 75 198 0.0 0.0 0.00 0.00 0.01 98 1014.0
20180716004327 75 198 0.0 0.0 0.00 0.00 0.01 98 1014.0
20180716003829 75 198 0.0 0.0 0.00 0.00 0.01 98 1013.9
20180716003327 76 198 0.0 0.0 0.00 0.00 0.01 97 1013.9
20180716002829 76 198 0.0 0.0 0.00 0.00 0.01 97 1014.0
20180716001332 77 198 0.0 0.0 0.00 0.00 0.01 96 1013.9